Regional Weather Roundup
Issued by NWS

Home | Current Version | Previous Version | Graphics & Text | Print | Product List | Glossary On
Versions: 1 2 3 4 5 6 7 8 9 10 11 12 13 14 15 16 17 18 19 20 21 22 23 24 25 26 27 28 29 30 31 32 33 34 35 36 37 38 39 40 41 42 43 44 45 46 47 48 49 50
000
ASUS43 KLMK 291410
RWRKY
KENTUCKY REGIONAL WEATHER ROUNDUP
NATIONAL WEATHER SERVICE LOUISVILLE KY
900 AM EST THU JAN 29 2015

NOTE "FAIR" INDICATES FEW OR NO CLOUDS BELOW 12,000 FEET
WITH NO SIGNIFICANT WEATHER AND/OR OBSTRUCTIONS TO VISIBILITY.

KYZ001>023-026-027-061>063-070>075-291500-
WESTERN AND SOUTH CENTRAL KENTUCKY

CITY           SKY/WX    TMP DP  RH WIND       PRES   REMARKS
PADUCAH        CLEAR     53  42  66 W14       29.95R
HENDERSON      SUNNY     50  36  57 SW14      29.91R
OWENSBORO      MOSUNNY   50  37  60 SW13      29.91R
HOPKINSVILLE   MOSUNNY   53  37  54 SW21G29   29.96R
BOWLING GREEN  PTSUNNY   49  34  56 S15       29.99R
GLASGOW        PTSUNNY   49  33  53 SW15G24   29.99R
$$

KYZ024-025-028>034-038-045-046-053-291500-
NORTH CENTRAL KENTUCKY

CITY           SKY/WX    TMP DP  RH WIND       PRES   REMARKS
LOUISVILLE/SDF PTSUNNY   47  34  60 S13       29.90R
LOUISVILLE/LOU PTSUNNY   46  33  60 S8        29.91R
FORT KNOX      PTSUNNY   48  35  60 S17G26    29.89S
$$

KYZ035>037-039>044-047>052-055>060-089>105-291500-
NORTHEAST KENTUCKY

CITY           SKY/WX    TMP DP  RH WIND       PRES   REMARKS
LEXINGTON      CLOUDY    41  30  65 S18G32    29.93F
COVINGTON      NOT AVBL
FRANKFORT      CLOUDY    42  32  67 S13       29.92R
$$

KYZ054-064>069-076>088-106>120-291500-
SOUTHEAST KENTUCKY

CITY           SKY/WX    TMP DP  RH WIND       PRES   REMARKS
JACKSON        CLOUDY    41  21  44 VRB5      30.01F
LONDON         RAIN      42  27  55 S10       30.05F
SOMERSET       RAIN      41  30  65 S9G23     30.04F
MIDDLESBORO    CLOUDY    37  22  54 S12G20    30.16R WCI  30
MONTICELLO     CLOUDY    44  34  68 S18G33    30.05F
$$



USA.gov is the U.S. government's official web portal to all federal, state and local government web resources and services.